Location: Calvatone
(45.1167°N, 10.4333°E)
Time: 20:46:56
(UTC+00:00)

DMSP B5D1-3 - Pass Details

Date: 28 January 2023
Orbit: 766 x 778 km, 98.5° (Epoch: 21 March)

Event Time Altitude Azimuth Distance (km) Brightness Sun altitude
Exits shadow 18:12:42 - 15° (NNE) 2,829 7.2 -19.9°
Reaches altitude 10° 18:13:59 10° 17° (NNE) 2,319 6.8 -20.2°
Maximum altitude 18:19:06 77° 103° (ESE) 795 4.4 -21.1°
Drops below altitude 10° 18:24:11 10° 190° (S) 2,309 7.1 -22.0°
Sets 18:26:30 0° 192° (SSW) 3,233 7.9 -22.4°
